[[{"header":{"parameterUnit":"m.s-1","parameterCategory":1,"la1":30.2991,"la2":30.254,"lo1":-89.0895,"lo2":-89.0444,"dy":0.0017,"dx":0.0017,"nx":28,"ny":28,"refTime":"2025-11-26T09:00:00:Z","depth":0,"parameterNumber":2,"parameterNumberName":"U-component_of_WINDS"},"data":[0,0,0,0,0,0,0,0,0,0,0,0,0,0,0,0,0,0,0,0,0,0,0,0,0,0,0,0,0,0,0,0,0,0,0,0,0,0,0,0,0,0,0,0,0,0,0,0,0,0,0,0,0,0,0,0,0,0,0.2905,0.2906,0,0.2966,0.2967,0.2968,0.3024,0.3025,0.3025,0.3026,0.3087,0.3088,0.3089,0,0,0,0,0,0,0,0,0,0,0,0,0,0.2837,0.2838,0.2905,0.2906,0.2907,0.2966,0.2967,0.2968,0.3024,0.3025,0.3026,0.3026,0.3087,0.3088,0.3089,0,0,0,0,0,0,0,0,0,0,0,0,0,0.2879,0.2838,0.2905,0.2942,0.2946,0.2966,0.2967,0.2968,0.3024,0.3025,0.3026,0.3027,0.3087,0.3088,0.309,0.3078,0,0,0.3094,0.3095,0,0,0,0,0,0,0,0,0.2877,0.2882,0.2936,0.2939,0.2944,0.2989,0.2966,0.3005,0.3023,0.2994,0.3026,0.3027,0.3054,0.3058,0.3067,0.3081,0.3084,0.3094,0.3095,0.3096,0.3096,0,0,0,0,0,0,0,0.2874,0.2879,0.2929,0.2936,0.2941,0.2955,0.2963,0.2973,0.3017,0.2997,0.3001,0.3007,0.3056,0.3065,0.3069,0.3085,0.3094,0.3096,0.3096,0.3097,0.3095,0.3094,0,0,0,0,0,0,0.2865,0.2876,0.2927,0.2931,0.2912,0.2956,0.2964,0.2973,0.3017,0.3025,0.3007,0.301,0.3062,0.3067,0.3071,0.3062,0.3096,0.3097,0.3098,0.3096,0.3094,0.3093,0,0,0,0,0,0,0.2863,0.2869,0.2925,0.2905,0.2913,0.2956,0.2966,0.2974,0.2983,0.3025,0.3033,0.3008,0.3063,0.3069,0.3077,0.3065,0.3098,0.3099,0.3097,0.3095,0.3094,0.3042,0,0,0,0,0,0,0.2861,0.2868,0.2864,0.2905,0.2914,0.2929,0.2965,0.2974,0.2986,0.2991,0.3028,0.3036,0.3065,0.3074,0.3078,0.3068,0.31,0.3098,0.3096,0.3094,0.3045,0.3039,0.3034,0,0,0,0,0,0.2859,0.2846,0.2863,0.2869,0.291,0.2928,0.2933,0.2968,0.2985,0.2981,0.3008,0.3034,0.3066,0.3074,0.3079,0.3069,0.3099,0.3097,0.3094,0.3048,0.3041,0.3034,0,0,0,0,0,0,0.2802,0.2852,0.2872,0.2872,0.2896,0.2937,0.2934,0.2959,0.2977,0.2981,0.3022,0.303,0.3033,0.3052,0.3061,0.3062,0.3086,0.3085,0.3049,0.3042,0.3037,0.3032,0.3102,0,0,0,0,0,0.279,0.2801,0.2844,0.284,0.2851,0.289,0.2899,0.2924,0.295,0.296,0.2987,0.3011,0.3027,0.3036,0.3052,0.3049,0.3058,0.3044,0.3039,0.3034,0.3032,0.3034,0.3028,0.3086,0.3086,0.3086,0,0,0.2764,0.2793,0.2797,0.283,0.2851,0.2861,0.2898,0.2907,0.2916,0.2961,0.297,0.2991,0.3021,0.3023,0.3026,0.3039,0.3019,0.3031,0.3027,0.3028,0.3031,0.3025,0.302,0.3085,0.3085,0.3085,0,0,0.2723,0.2746,0.2746,0.2767,0.2798,0.2825,0.2825,0.2864,0.288,0.289,0.2925,0.2936,0.2961,0.2981,0.2995,0.2964,0.2989,0.2968,0.2939,0.294,0.2935,0.2931,0.2921,0.2917,0.2966,0.2966,0.2966,0,0.2687,0.2704,0.2742,0.275,0.2764,0.2807,0.2808,0.2826,0.2861,0.287,0.2885,0.2919,0.2942,0.295,0.2943,0.2952,0.2954,0.2963,0.2933,0.2929,0.2926,0.2917,0.2913,0.2964,0.2964,0.2964,0.2964,0,0.2659,0.267,0.2667,0.2701,0.2715,0.2718,0.2758,0.2767,0.2791,0.2816,0.2827,0.2856,0.288,0.2884,0.2907,0.2897,0.2904,0.2925,0.2951,0.2918,0.291,0.2906,0.296,0.2961,0.2961,0.2962,0,0,0.2581,0.2639,0.2637,0.2654,0.2693,0.2703,0.271,0.2734,0.2741,0.2765,0.2772,0.2794,0.2815,0.283,0.2856,0.2857,0.2832,0.2878,0.288,0.2869,0.2823,0.2807,0.2802,0.285,0.2849,0.2849,0.2821,0,0.2547,0.2562,0.2597,0.2601,0.2613,0.2656,0.2662,0.2687,0.2711,0.2725,0.2753,0.2768,0.2793,0.2803,0.2806,0.2834,0.2823,0.2837,0.2857,0.2857,0.2847,0.2798,0.278,0.2752,0.2818,0.2818,0.2817,0,0.2508,0.253,0.2535,0.2576,0.2582,0.2587,0.2614,0.2626,0.2656,0.2674,0.2693,0.2722,0.2732,0.2757,0.2772,0.278,0.2791,0.2806,0.2806,0.2809,0.2834,0.2799,0.2744,0.274,0.2813,0.2813,0.2813,0,0.2451,0.2483,0.249,0.2503,0.2551,0.2554,0.2574,0.2605,0.2618,0.2641,0.265,0.2674,0.2687,0.2705,0.274,0.2754,0.2752,0.2779,0.2767,0.2766,0.2764,0.2763,0.271,0.2771,0.2771,0.2771,0.2771,0,0.2409,0.241,0.2466,0.247,0.2474,0.2516,0.2518,0.2542,0.257,0.2581,0.2619,0.2628,0.2675,0.2689,0.2717,0.2726,0.2732,0.2747,0.2754,0.2743,0.2741,0.275,0.2753,0.277,0.277,0.2771,0.2771,0,0.2346,0.2383,0.2394,0.2439,0.2451,0.2452,0.249,0.2497,0.2525,0.2538,0.2543,0.2586,0.2606,0.2644,0.2673,0.2692,0.2695,0.2708,0.2685,0.2689,0.2676,0.2677,0.2626,0.2622,0.2685,0.2685,0.2684,0,0.2316,0.2318,0.2364,0.2374,0.2393,0.2409,0.2423,0.2465,0.2478,0.2514,0.2516,0.2539,0.2559,0.2589,0.2623,0.2646,0.266,0.2641,0.2664,0.2653,0.266,0.266,0.2661,0.2635,0.2634,0.2634,0.2633,0,0.2259,0.2278,0.2296,0.2322,0.2338,0.236,0.2385,0.2391,0.2439,0.2452,0.2473,0.2488,0.252,0.2542,0.2571,0.2593,0.2621,0.2626,0.2625,0.2613,0.26,0.2607,0.2671,0.2627,0.2627,0.2628,0.2628,0.2628,0.2212,0.2216,0.225,0.227,0.2293,0.2316,0.2325,0.2354,0.2373,0.2402,0.2426,0.2445,0.2477,0.2519,0.2539,0.2555,0.2569,0.2566,0.2566,0.2565,0.256,0.2598,0.2561,0.2561,0.2561,0.2561,0.2561,0,0.2157,0.2181,0.22,0.2233,0.2249,0.2276,0.2305,0.2317,0.2333,0.2361,0.2381,0.2406,0.2429,0.2466,0.2492,0.2498,0.2511,0.2503,0.2503,0.2507,0.2547,0.2545,0.2491,0.2491,0.2491,0.2491,0.2491,0.2491,0.213,0.214,0.2163,0.2186,0.2211,0.223,0.2244,0.2266,0.2289,0.2315,0.2334,0.2359,0.2391,0.242,0.2442,0.2452,0.246,0.2448,0.2462,0.2498,0.2504,0.2511,0.251,0.2449,0.2449,0.2422,0.2421,0.2421]},{"header":{"parameterUnit":"m.s-1","parameterCategory":1,"la1":30.2991,"la2":30.254,"lo1":-89.0895,"lo2":-89.0444,"dy":0.0017,"dx":0.0017,"nx":28,"ny":28,"refTime":"2025-11-26T09:00:00:Z","depth":0,"parameterNumber":3,"parameterNumberName":"V-component_of_WINDS"},"data":[0,0,0,0,0,0,0,0,0,0,0,0,0,0,0,0,0,0,0,0,0,0,0,0,0,0,0,0,0,0,0,0,0,0,0,0,0,0,0,0,0,0,0,0,0,0,0,0,0,0,0,0,0,0,0,0,0,0,-6.7526,-6.7526,0,-6.7558,-6.7558,-6.7558,-6.747,-6.7467,-6.7464,-6.7462,-6.749,-6.7493,-6.7496,0,0,0,0,0,0,0,0,0,0,0,0,0,-6.7386,-6.7389,-6.7526,-6.7526,-6.7527,-6.7558,-6.7558,-6.7559,-6.747,-6.7467,-6.7464,-6.746,-6.7489,-6.7493,-6.7497,0,0,0,0,0,0,0,0,0,0,0,0,0,-6.7435,-6.739,-6.7526,-6.7486,-6.7483,-6.7558,-6.7558,-6.7559,-6.7471,-6.7467,-6.7463,-6.7459,-6.7487,-6.7492,-6.7497,-6.761,0,0,-6.7512,-6.7514,0,0,0,0,0,0,0,0,-6.7432,-6.744,-6.7492,-6.7489,-6.7486,-6.7506,-6.7519,-6.7576,-6.7472,-6.7475,-6.7462,-6.7457,-6.7498,-6.7502,-6.7517,-6.7611,-6.7612,-6.7513,-6.7516,-6.7518,-6.7519,0,0,0,0,0,0,0,-6.7429,-6.7438,-6.7538,-6.7493,-6.7489,-6.7466,-6.7469,-6.7529,-6.7509,-6.7475,-6.7468,-6.7474,-6.7496,-6.7512,-6.7517,-6.7612,-6.7513,-6.7517,-6.752,-6.7522,-6.7803,-6.7808,0,0,0,0,0,0,-6.7431,-6.7436,-6.7537,-6.7539,-6.7449,-6.7472,-6.7475,-6.7503,-6.7508,-6.7505,-6.7477,-6.747,-6.7506,-6.7511,-6.7517,-6.7651,-6.7518,-6.7522,-6.7525,-6.7799,-6.7804,-6.7809,0,0,0,0,0,0,-6.7429,-6.7441,-6.7536,-6.7486,-6.7496,-6.7479,-6.7512,-6.7506,-6.7522,-6.751,-6.7506,-6.7498,-6.7503,-6.751,-6.7588,-6.765,-6.7525,-6.7529,-6.7794,-6.7801,-6.7807,-6.7918,0,0,0,0,0,0,-6.7425,-6.7441,-6.7483,-6.7488,-6.7499,-6.7607,-6.7515,-6.751,-6.7532,-6.7522,-6.7528,-6.7526,-6.75,-6.7581,-6.7593,-6.7655,-6.7533,-6.7788,-6.7797,-6.7805,-6.7908,-6.7927,-6.7944,0,0,0,0,0,-6.742,-6.7511,-6.7486,-6.7499,-6.7553,-6.7611,-6.7617,-6.7587,-6.7537,-6.758,-6.7573,-6.7525,-6.7642,-6.759,-6.7603,-6.7667,-6.7784,-6.7794,-6.7804,-6.79,-6.7924,-6.7943,0,0,0,0,0,0,-6.7512,-6.7511,-6.7483,-6.7578,-6.7596,-6.7596,-6.7648,-6.7613,-6.7643,-6.7632,-6.7593,-6.7595,-6.7681,-6.7681,-6.7623,-6.7777,-6.7704,-6.7717,-6.7773,-6.7795,-6.7813,-6.781,-6.7537,0,0,0,0,0,-6.7544,-6.7592,-6.7588,-6.7673,-6.7684,-6.7665,-6.7689,-6.7666,-6.7681,-6.7687,-6.7685,-6.7701,-6.7741,-6.7768,-6.7805,-6.7909,-6.7909,-6.796,-6.7977,-6.7992,-6.8003,-6.806,-6.8083,-6.7843,-6.7843,-6.7842,0,0,-6.7608,-6.7614,-6.7647,-6.7692,-6.7702,-6.7753,-6.7671,-6.7727,-6.7765,-6.7695,-6.7769,-6.7769,-6.7784,-6.7876,-6.7917,-6.788,-6.807,-6.8005,-6.8017,-6.802,-6.8073,-6.8096,-6.8116,-6.785,-6.7848,-6.7847,0,0,-6.7753,-6.7762,-6.7835,-6.7849,-6.7867,-6.7855,-6.7873,-6.788,-6.7878,-6.7952,-6.7902,-6.7945,-6.8015,-6.8029,-6.8045,-6.82,-6.8158,-6.8213,-6.8305,-6.8361,-6.838,-6.8396,-6.8452,-6.8473,-6.8225,-6.8225,-6.8226,0,-6.7831,-6.7906,-6.7876,-6.7938,-6.7959,-6.7902,-6.7976,-6.799,-6.8019,-6.8035,-6.7994,-6.8083,-6.8089,-6.8184,-6.8223,-6.8238,-6.8257,-6.8211,-6.838,-6.8396,-6.8411,-6.8464,-6.8485,-6.8232,-6.8231,-6.823,-6.823,0,-6.8002,-6.8055,-6.8112,-6.8144,-6.8173,-6.824,-6.822,-6.8252,-6.8227,-6.822,-6.8298,-6.8304,-6.8341,-6.8363,-6.8337,-6.8456,-6.8433,-6.8387,-6.8312,-6.8441,-6.849,-6.851,-6.8241,-6.8239,-6.8237,-6.8235,0,0,-6.82,-6.822,-6.8241,-6.8256,-6.8275,-6.8315,-6.838,-6.842,-6.8449,-6.8472,-6.8525,-6.8589,-6.8548,-6.8566,-6.8543,-6.8592,-6.8716,-6.854,-6.854,-6.8573,-6.8848,-6.8883,-6.8906,-6.869,-6.8694,-6.8697,-6.8847,0,-6.8343,-6.8457,-6.8435,-6.8546,-6.8595,-6.8544,-6.8602,-6.8619,-6.8615,-6.8656,-6.865,-6.8696,-6.8638,-6.8649,-6.8696,-6.8691,-6.8771,-6.868,-6.8739,-6.8741,-6.8736,-6.8932,-6.8967,-6.9109,-6.8866,-6.8869,-6.8872,0,-6.8524,-6.8558,-6.8675,-6.8689,-6.8709,-6.8761,-6.8797,-6.8837,-6.8857,-6.885,-6.8874,-6.8842,-6.8907,-6.8834,-6.8924,-6.8863,-6.8886,-6.8887,-6.8892,-6.8895,-6.8813,-6.894,-6.9153,-6.9175,-6.8902,-6.8899,-6.8897,0,-6.8658,-6.8732,-6.8813,-6.8827,-6.8845,-6.8884,-6.8893,-6.8909,-6.8935,-6.8967,-6.8983,-6.9022,-6.9042,-6.9072,-6.9052,-6.9,-6.9145,-6.907,-6.9141,-6.9142,-6.9172,-6.917,-6.9392,-6.9189,-6.9189,-6.9188,-6.9188,0,-6.8819,-6.8893,-6.8874,-6.8923,-6.9005,-6.8979,-6.906,-6.9063,-6.9078,-6.9127,-6.9085,-6.9131,-6.9102,-6.9146,-6.9131,-6.9208,-6.9217,-6.9214,-6.9208,-6.9217,-6.9218,-6.923,-6.922,-6.9194,-6.9192,-6.9191,-6.919,0,-6.8981,-6.8971,-6.9056,-6.9068,-6.9073,-6.9133,-6.9143,-6.9189,-6.9184,-6.9246,-6.9259,-6.925,-6.93,-6.9284,-6.9337,-6.9326,-6.9425,-6.9407,-6.9419,-6.9414,-6.9487,-6.948,-6.9723,-6.9754,-6.9532,-6.9534,-6.9536,0,-6.9084,-6.914,-6.916,-6.9191,-6.9205,-6.9255,-6.9283,-6.926,-6.9291,-6.9321,-6.9363,-6.9411,-6.9447,-6.953,-6.9527,-6.9569,-6.9551,-6.9634,-6.9557,-6.9565,-6.9552,-6.9549,-6.9555,-6.9648,-6.9651,-6.9653,-6.9655,0,-6.9268,-6.9262,-6.9305,-6.9348,-6.9384,-6.9416,-6.9443,-6.9471,-6.9451,-6.9488,-6.954,-6.9569,-6.9626,-6.9674,-6.9712,-6.972,-6.9685,-6.968,-6.9698,-6.9707,-6.9712,-6.9711,-6.946,-6.9674,-6.9672,-6.967,-6.9669,-6.9668,-6.9403,-6.9452,-6.9475,-6.9525,-6.9545,-6.9574,-6.9619,-6.9621,-6.9665,-6.9711,-6.9695,-6.9756,-6.9777,-6.9825,-6.9839,-6.9886,-6.9854,-6.9881,-6.9887,-6.9894,-6.9904,-6.9706,-6.9892,-6.9892,-6.9891,-6.9891,-6.989,0,-6.9585,-6.9599,-6.9646,-6.9689,-6.9729,-6.9696,-6.9726,-6.9762,-6.9816,-6.984,-6.9879,-6.994,-6.9988,-6.9991,-7.0035,-7.0072,-7.0057,-7.0084,-7.0081,-7.0083,-6.9929,-6.9909,-7.0096,-7.0096,-7.0096,-7.0096,-7.0096,-7.0096,-6.9684,-6.9766,-6.9763,-6.9855,-6.9868,-6.9929,-6.995,-6.9976,-6.9995,-7.0067,-7.0107,-7.011,-7.0126,-7.0172,-7.0214,-7.0213,-7.0231,-7.0265,-7.0259,-7.0114,-7.0094,-7.0074,-7.0055,-7.0269,-7.0269,-7.0408,-7.041,-7.0411]}]]